Location: Newark
(48.0000°N, 67.0000°E)
Time: 21:15:02
(UTC+00:00)

A-11 Canister half - Visible Passes

Search period start: 17 February 2020 00:00
Search period end: 27 February 2020 00:00
Orbit: 1525 x 1684 km, 47.3° (Epoch: 17 February)

Date Brightness Start Highest point End Pass type
(mag) Time Alt. Az. Time Alt. Az. Time Alt. Az.
17 Feb 11.0 14:27:00 10° W 14:33:32 22° SW 14:40:12 10° S visible
18 Feb 11.1 14:05:14 10° W 14:12:00 23° SW 14:18:51 10° S visible
19 Feb 11.1 13:43:30 10° W 13:50:26 24° SW 13:57:30 10° S visible
20 Feb 11.1 13:21:46 10° W 13:28:54 25° SW 13:36:07 10° S visible
